カタログに戻る

FENGYUN 1C DEB

運用中SSO
NORAD 32093·DEBRIS·🇨🇳 China

打ち上げ May 10, 1999 から Taiyuan Satellite Launch Center

Loading…

次のパス (今後24時間)

TLE

最新Source: Space-Track

元期: Sep 13, 2026, 13:58 UTC

1 32093U 99025CQK 26256.58250766  .00000597  00000-0  20543-3 0  9990
2 32093  98.8879 124.4214 0077375 262.4611  96.7780 14.38199997  3535

AllMySatでFENGYUN 1C DEBをリアルタイム追跡

Download on the App Store